TimeEDT,TemperatureF,Dew PointF,Humidity,Sea Level PressureIn,VisibilityMPH,Wind Direction,Wind SpeedMPH,Gust SpeedMPH,PrecipitationIn,Events,Conditions,WindDirDegrees,DateUTC
12:56 AM,55.9,46.9,72,30.27,10.0,Calm,Calm,-,N/A,,Clear,0,2013-06-21 04:56:00
1:56 AM,53.1,46.0,77,30.28,10.0,Calm,Calm,-,N/A,,Clear,0,2013-06-21 05:56:00
2:56 AM,52.0,46.9,83,30.28,10.0,Calm,Calm,-,N/A,,Clear,0,2013-06-21 06:56:00
3:56 AM,52.0,48.0,86,30.27,10.0,Calm,Calm,-,N/A,,Clear,0,2013-06-21 07:56:00
4:56 AM,51.1,48.0,89,30.28,10.0,Calm,Calm,-,N/A,,Clear,0,2013-06-21 08:56:00
5:56 AM,53.1,46.9,80,30.28,10.0,Calm,Calm,-,N/A,,Clear,0,2013-06-21 09:56:00
6:56 AM,52.0,48.9,89,30.28,10.0,Calm,Calm,-,N/A,,Clear,0,2013-06-21 10:56:00
7:56 AM,57.9,51.1,78,30.28,10.0,Calm,Calm,-,N/A,,Clear,0,2013-06-21 11:56:00
8:56 AM,63.0,54.0,72,30.29,10.0,Calm,Calm,-,N/A,,Clear,0,2013-06-21 12:56:00
9:56 AM,70.0,55.9,61,30.30,10.0,ESE,3.5,-,N/A,,Clear,120,2013-06-21 13:56:00
10:56 AM,73.0,50.0,44,30.31,10.0,Variable,5.8,-,N/A,,Clear,0,2013-06-21 14:56:00
11:56 AM,73.0,50.0,44,30.29,10.0,Calm,Calm,-,N/A,,Clear,0,2013-06-21 15:56:00
12:56 PM,75.0,50.0,41,30.29,10.0,West,4.6,-,N/A,,Clear,260,2013-06-21 16:56:00
1:56 PM,75.9,46.9,36,30.28,10.0,WSW,9.2,-,N/A,,Clear,250,2013-06-21 17:56:00
2:56 PM,77.0,52.0,42,30.27,10.0,SW,8.1,-,N/A,,Clear,220,2013-06-21 18:56:00
3:56 PM,77.0,51.1,40,30.27,10.0,Calm,Calm,-,N/A,,Mostly Cloudy,0,2013-06-21 19:56:00
4:56 PM,75.9,52.0,43,30.26,10.0,SW,4.6,-,N/A,,Partly Cloudy,220,2013-06-21 20:56:00
5:56 PM,75.9,53.1,45,30.25,10.0,SSW,5.8,-,N/A,,Partly Cloudy,200,2013-06-21 21:56:00
6:56 PM,73.9,54.0,50,30.25,10.0,SW,5.8,-,N/A,,Clear,220,2013-06-21 22:56:00
7:56 PM,73.0,55.0,53,30.24,10.0,WSW,3.5,-,N/A,,Partly Cloudy,240,2013-06-21 23:56:00
8:56 PM,70.0,53.1,55,30.23,10.0,SW,4.6,-,N/A,,Clear,230,2013-06-22 00:56:00
9:56 PM,70.0,53.1,55,30.24,10.0,WSW,4.6,-,N/A,,Mostly Cloudy,250,2013-06-22 01:56:00
10:56 PM,63.0,57.0,81,30.24,10.0,Calm,Calm,-,N/A,,Clear,0,2013-06-22 02:56:00
11:56 PM,63.0,54.0,72,30.24,10.0,SSE,3.5,-,N/A,,Clear,150,2013-06-22 03:56:00